| time (UTC) | temp F | wind direction | speed MPH | gust MPH | rain 1hr in | rain 24hr in | rain mn in | humidity % | barometer mb |
| 20260507224045 | 62 | 273 | 2.0 | 4.0 | 0.00 | 0.00 | 0.00 | 73 | 1013.8 |
| 20260507223545 | 62 | 301 | 1.0 | 3.0 | 0.00 | 0.00 | 0.00 | 76 | 1013.7 |
| 20260507223054 | 62 | 301 | 1.0 | 3.0 | 0.00 | 0.00 | 0.00 | 77 | 1013.8 |
| 20260507222545 | 62 | 338 | 1.0 | 3.0 | 0.00 | 0.00 | 0.00 | 78 | 1013.9 |
| 20260507222045 | 62 | 350 | 2.0 | 3.0 | 0.00 | 0.00 | 0.00 | 77 | 1013.8 |
| 20260507221551 | 62 | 348 | 1.0 | 4.0 | 0.00 | 0.00 | 0.00 | 78 | 1013.9 |
| 20260507221045 | 62 | 318 | 1.0 | 4.0 | 0.00 | 0.00 | 0.00 | 77 | 1013.9 |
| 20260507220544 | 62 | 0 | 1.0 | 4.0 | 0.00 | 0.00 | 0.00 | 76 | 1013.8 |
| 20260507220051 | 62 | 253 | 2.0 | 5.0 | 0.00 | 0.00 | 0.00 | 77 | 1013.8 |
| 20260507215545 | 62 | 217 | 2.0 | 6.0 | 0.00 | 0.00 | 0.00 | 79 | 1013.9 |
| 20260507215045 | 61 | 211 | 3.0 | 7.0 | 0.00 | 0.00 | 0.00 | 80 | 1013.8 |
| 20260507214552 | 61 | 211 | 4.0 | 7.0 | 0.00 | 0.00 | 0.00 | 80 | 1013.8 |
| 20260507214045 | 61 | 215 | 5.0 | 7.0 | 0.00 | 0.00 | 0.00 | 81 | 1013.7 |
| 20260507213548 | 61 | 211 | 4.0 | 9.0 | 0.00 | 0.00 | 0.00 | 81 | 1013.7 |
| 20260507213053 | 61 | 213 | 5.0 | 9.0 | 0.00 | 0.00 | 0.00 | 82 | 1013.8 |
| 20260507212548 | 61 | 197 | 6.0 | 9.0 | 0.00 | 0.00 | 0.00 | 82 | 1013.7 |
| 20260507212045 | 61 | 211 | 4.0 | 7.0 | 0.00 | 0.00 | 0.00 | 83 | 1013.9 |
| 20260507211552 | 61 | 198 | 3.0 | 6.0 | 0.00 | 0.00 | 0.00 | 83 | 1013.7 |
| 20260507211044 | 61 | 204 | 2.0 | 6.0 | 0.00 | 0.00 | 0.00 | 83 | 1013.8 |
| 20260507210545 | 61 | 208 | 2.0 | 6.0 | 0.00 | 0.00 | 0.00 | 83 | 1013.9 |
| 20260507210053 | 61 | 265 | 4.0 | 6.0 | 0.00 | 0.00 | 0.00 | 83 | 1013.8 |
| 20260507205543 | 61 | 204 | 2.0 | 6.0 | 0.00 | 0.00 | 0.00 | 83 | 1013.8 |
| 20260507205045 | 61 | 243 | 2.0 | 5.0 | 0.00 | 0.00 | 0.00 | 83 | 1013.8 |
| 20260507204553 | 61 | 192 | 2.0 | 6.0 | 0.00 | 0.00 | 0.00 | 83 | 1013.8 |
| 20260507204044 | 61 | 165 | 2.0 | 6.0 | 0.00 | 0.00 | 0.00 | 82 | 1013.9 |
| 20260507203544 | 61 | 201 | 2.0 | 8.0 | 0.00 | 0.00 | 0.00 | 82 | 1014.0 |
| 20260507203057 | 61 | 185 | 3.0 | 8.0 | 0.00 | 0.00 | 0.00 | 81 | 1013.8 |
| 20260507202545 | 61 | 190 | 4.0 | 8.0 | 0.00 | 0.00 | 0.00 | 81 | 1013.9 |
| 20260507202043 | 61 | 186 | 3.0 | 7.0 | 0.00 | 0.00 | 0.00 | 81 | 1014.0 |
| 20260507201607 | 62 | 185 | 2.0 | 6.0 | 0.00 | 0.00 | 0.00 | 80 | 1014.0 |
| 20260507201047 | 62 | 185 | 3.0 | 5.0 | 0.00 | 0.00 | 0.00 | 80 | 1013.9 |
| 20260507200546 | 61 | 198 | 3.0 | 5.0 | 0.00 | 0.00 | 0.00 | 81 | 1014.0 |
| 20260507200056 | 61 | 144 | 1.0 | 2.0 | 0.00 | 0.00 | 0.00 | 82 | 1013.9 |
| 20260507195545 | 61 | 144 | 0.0 | 2.0 | 0.00 | 0.00 | 0.00 | 83 | 1014.0 |
| 20260507195048 | 61 | 0 | 0.0 | 2.0 | 0.00 | 0.00 | 0.00 | 84 | 1014.0 |
| 20260507194553 | 61 | 94 | 0.0 | 2.0 | 0.00 | 0.00 | 0.00 | 84 | 1013.9 |
| 20260507194045 | 61 | 0 | 0.0 | 2.0 | 0.00 | 0.00 | 0.00 | 84 | 1013.9 |
| 20260507193542 | 61 | 94 | 0.0 | 4.0 | 0.00 | 0.00 | 0.00 | 85 | 1013.9 |
| 20260507193056 | 61 | 0 | 1.0 | 4.0 | 0.00 | 0.00 | 0.00 | 85 | 1013.8 |
| 20260507192547 | 61 | 94 | 1.0 | 4.0 | 0.00 | 0.00 | 0.00 | 87 | 1013.8 |
| 20260507192045 | 61 | 94 | 1.0 | 2.0 | 0.00 | 0.00 | 0.00 | 87 | 1013.7 |
| 20260507191556 | 61 | 63 | 0.0 | 2.0 | 0.00 | 0.00 | 0.00 | 87 | 1013.7 |
| 20260507191045 | 61 | 0 | 0.0 | 2.0 | 0.00 | 0.00 | 0.00 | 87 | 1013.7 |
| 20260507190544 | 61 | 0 | 0.0 | 2.0 | 0.00 | 0.00 | 0.00 | 87 | 1013.7 |
| 20260507190051 | 61 | 0 | 0.0 | 1.0 | 0.00 | 0.00 | 0.00 | 87 | 1013.6 |
| 20260507185544 | 61 | 0 | 0.0 | 3.0 | 0.00 | 0.00 | 0.00 | 87 | 1013.5 |
| 20260507185044 | 61 | 38 | 0.0 | 3.0 | 0.00 | 0.00 | 0.00 | 87 | 1013.6 |
| 20260507184553 | 61 | 0 | 0.0 | 5.0 | 0.00 | 0.00 | 0.00 | 87 | 1013.6 |
| 20260507184044 | 61 | 104 | 1.0 | 7.0 | 0.00 | 0.00 | 0.00 | 87 | 1013.7 |
| 20260507183548 | 61 | 127 | 3.0 | 7.0 | 0.00 | 0.00 | 0.00 | 87 | 1013.7 |
| 20260507183115 | 61 | 127 | 2.0 | 5.0 | 0.00 | 0.00 | 0.00 | 87 | 1013.6 |
| 20260507182545 | 61 | 138 | 2.0 | 5.0 | 0.00 | 0.00 | 0.00 | 86 | 1013.7 |
| 20260507182046 | 61 | 138 | 3.0 | 6.0 | 0.00 | 0.00 | 0.00 | 86 | 1013.6 |
| 20260507181553 | 61 | 146 | 2.0 | 6.0 | 0.00 | 0.00 | 0.00 | 86 | 1013.6 |
| 20260507181042 | 61 | 0 | 1.0 | 4.0 | 0.00 | 0.00 | 0.00 | 85 | 1013.4 |
| 20260507180545 | 61 | 129 | 1.0 | 3.0 | 0.00 | 0.00 | 0.00 | 84 | 1013.4 |
| 20260507180052 | 62 | 0 | 0.0 | 2.0 | 0.00 | 0.00 | 0.00 | 84 | 1013.4 |
| 20260507175544 | 62 | 0 | 0.0 | 3.0 | 0.00 | 0.00 | 0.00 | 83 | 1013.4 |
| 20260507175044 | 62 | 57 | 0.0 | 3.0 | 0.00 | 0.00 | 0.00 | 82 | 1013.3 |
| 20260507174604 | 62 | 57 | 0.0 | 3.0 | 0.00 | 0.00 | 0.00 | 81 | 1013.4 |
| 20260507174044 | 63 | 57 | 0.0 | 4.0 | 0.00 | 0.00 | 0.00 | 81 | 1013.4 |
| 20260507173544 | 63 | 57 | 0.0 | 4.0 | 0.00 | 0.00 | 0.00 | 80 | 1013.3 |
| 20260507173049 | 63 | 47 | 1.0 | 4.0 | 0.00 | 0.00 | 0.00 | 81 | 1013.2 |
| 20260507172547 | 63 | 25 | 1.0 | 5.0 | 0.00 | 0.00 | 0.00 | 81 | 1013.1 |
| 20260507172045 | 63 | 30 | 2.0 | 5.0 | 0.00 | 0.00 | 0.00 | 79 | 1013.1 |
| 20260507171601 | 63 | 0 | 1.0 | 5.0 | 0.00 | 0.00 | 0.00 | 77 | 1013.1 |
| 20260507171045 | 64 | 39 | 1.0 | 5.0 | 0.00 | 0.00 | 0.00 | 77 | 1013.1 |
| 20260507170543 | 64 | 22 | 0.0 | 4.0 | 0.00 | 0.00 | 0.00 | 75 | 1013.0 |
| 20260507170052 | 65 | 0 | 0.0 | 3.0 | 0.00 | 0.00 | 0.00 | 72 | 1013.1 |
| 20260507165542 | 66 | 0 | 0.0 | 3.0 | 0.00 | 0.00 | 0.00 | 69 | 1013.1 |
| 20260507165044 | 66 | 50 | 0.0 | 3.0 | 0.00 | 0.00 | 0.00 | 69 | 1013.1 |
| 20260507164553 | 66 | 0 | 0.0 | 2.0 | 0.00 | 0.00 | 0.00 | 70 | 1013.1 |
| 20260507164043 | 66 | 0 | 0.0 | 3.0 | 0.00 | 0.00 | 0.00 | 69 | 1013.1 |
| 20260507163543 | 66 | 0 | 0.0 | 3.0 | 0.00 | 0.00 | 0.00 | 70 | 1012.9 |
| 20260507163049 | 65 | 0 | 0.0 | 3.0 | 0.00 | 0.00 | 0.00 | 68 | 1012.9 |
| 20260507162545 | 65 | 355 | 0.0 | 3.0 | 0.00 | 0.00 | 0.00 | 69 | 1013.0 |
| 20260507162045 | 66 | 0 | 0.0 | 3.0 | 0.00 | 0.00 | 0.00 | 69 | 1013.1 |
| 20260507161552 | 65 | 0 | 0.0 | 3.0 | 0.00 | 0.00 | 0.00 | 67 | 1013.1 |
| 20260507161042 | 65 | 36 | 0.0 | 4.0 | 0.00 | 0.00 | 0.00 | 67 | 1013.2 |
| 20260507160542 | 65 | 0 | 0.0 | 4.0 | 0.00 | 0.00 | 0.00 | 68 | 1013.1 |
| 20260507160054 | 66 | 0 | 0.0 | 3.0 | 0.00 | 0.00 | 0.00 | 67 | 1013.1 |
| 20260507155543 | 66 | 331 | 0.0 | 3.0 | 0.00 | 0.00 | 0.00 | 72 | 1013.1 |
| 20260507155045 | 65 | 0 | 0.0 | 3.0 | 0.00 | 0.00 | 0.00 | 72 | 1013.2 |
| 20260507154549 | 65 | 312 | 0.0 | 5.0 | 0.00 | 0.00 | 0.00 | 70 | 1013.1 |
| 20260507154042 | 64 | 94 | 0.0 | 5.0 | 0.00 | 0.00 | 0.00 | 70 | 1013.2 |
| 20260507153543 | 64 | 355 | 1.0 | 5.0 | 0.00 | 0.00 | 0.00 | 71 | 1013.1 |
| 20260507153047 | 64 | 0 | 0.0 | 5.0 | 0.00 | 0.00 | 0.00 | 75 | 1013.1 |
| 20260507152543 | 64 | 0 | 1.0 | 5.0 | 0.00 | 0.00 | 0.00 | 73 | 1013.2 |
| 20260507152043 | 64 | 355 | 1.0 | 6.0 | 0.00 | 0.00 | 0.00 | 74 | 1013.1 |
| 20260507151547 | 64 | 42 | 2.0 | 6.0 | 0.00 | 0.00 | 0.00 | 74 | 1013.1 |
| 20260507151042 | 65 | 0 | 1.0 | 5.0 | 0.00 | 0.00 | 0.00 | 74 | 1013.1 |
| 20260507150544 | 65 | 0 | 1.0 | 5.0 | 0.00 | 0.00 | 0.00 | 73 | 1013.2 |
| 20260507150054 | 64 | 352 | 1.0 | 8.0 | 0.00 | 0.00 | 0.00 | 75 | 1013.1 |
| 20260507145543 | 64 | 34 | 2.0 | 8.0 | 0.00 | 0.00 | 0.00 | 75 | 1013.2 |
| 20260507145042 | 64 | 71 | 2.0 | 8.0 | 0.00 | 0.00 | 0.00 | 74 | 1013.2 |
| 20260507144614 | 65 | 5 | 0.0 | 4.0 | 0.00 | 0.00 | 0.00 | 74 | 1013.1 |
| 20260507144043 | 64 | 50 | 1.0 | 5.0 | 0.00 | 0.00 | 0.00 | 73 | 1013.1 |
| 20260507143544 | 65 | 27 | 2.0 | 5.0 | 0.00 | 0.00 | 0.00 | 73 | 1013.3 |
| 20260507143054 | 66 | 24 | 1.0 | 5.0 | 0.00 | 0.00 | 0.00 | 73 | 1013.3 |
| 20260507142542 | 66 | 36 | 1.0 | 4.0 | 0.00 | 0.00 | 0.00 | 72 | 1013.3 |
| 20260507142042 | 65 | 0 | 0.0 | 4.0 | 0.00 | 0.00 | 0.00 | 74 | 1013.4 |
| 20260507141613 | 64 | 29 | 1.0 | 4.0 | 0.00 | 0.00 | 0.00 | 77 | 1013.3 |
| 20260507141042 | 64 | 0 | 0.0 | 4.0 | 0.00 | 0.00 | 0.00 | 77 | 1013.4 |
| 20260507140541 | 64 | 32 | 1.0 | 5.0 | 0.00 | 0.00 | 0.00 | 77 | 1013.3 |
| 20260507140053 | 63 | 29 | 1.0 | 6.0 | 0.00 | 0.00 | 0.00 | 77 | 1013.6 |
| 20260507135546 | 64 | 13 | 0.0 | 7.0 | 0.00 | 0.00 | 0.00 | 77 | 1013.6 |
| 20260507135044 | 63 | 0 | 2.0 | 7.0 | 0.00 | 0.00 | 0.00 | 75 | 1013.3 |
| 20260507134552 | 64 | 48 | 2.0 | 5.0 | 0.00 | 0.00 | 0.00 | 75 | 1013.3 |
| 20260507134042 | 65 | 22 | 0.0 | 8.0 | 0.00 | 0.00 | 0.00 | 76 | 1013.4 |
| 20260507133543 | 64 | 0 | 1.0 | 8.0 | 0.00 | 0.00 | 0.00 | 75 | 1013.3 |
| 20260507133049 | 65 | 0 | 1.0 | 8.0 | 0.00 | 0.00 | 0.00 | 76 | 1013.2 |
| 20260507132542 | 64 | 308 | 1.0 | 8.0 | 0.00 | 0.00 | 0.00 | 77 | 1013.3 |
| 20260507132043 | 65 | 22 | 0.0 | 7.0 | 0.00 | 0.00 | 0.00 | 77 | 1013.3 |
| 20260507131550 | 65 | 44 | 1.0 | 7.0 | 0.00 | 0.00 | 0.00 | 79 | 1013.4 |
| 20260507131042 | 64 | 52 | 2.0 | 8.0 | 0.00 | 0.00 | 0.00 | 77 | 1013.4 |
| 20260507130544 | 64 | 17 | 2.0 | 8.0 | 0.00 | 0.00 | 0.00 | 77 | 1013.4 |
| 20260507130104 | 64 | 52 | 2.0 | 8.0 | 0.00 | 0.00 | 0.00 | 75 | 1013.4 |
| 20260507125542 | 64 | 48 | 1.0 | 10.0 | 0.00 | 0.00 | 0.00 | 79 | 1013.4 |
| 20260507125043 | 63 | 0 | 2.0 | 10.0 | 0.00 | 0.00 | 0.00 | 80 | 1013.5 |
| 20260507124548 | 63 | 11 | 2.0 | 8.0 | 0.00 | 0.00 | 0.00 | 81 | 1013.6 |
| 20260507124042 | 63 | 15 | 2.0 | 8.0 | 0.00 | 0.00 | 0.00 | 79 | 1013.7 |
| 20260507123543 | 64 | 360 | 2.0 | 8.0 | 0.00 | 0.00 | 0.00 | 79 | 1013.6 |
| 20260507123052 | 63 | 32 | 2.0 | 8.0 | 0.00 | 0.00 | 0.00 | 80 | 1013.7 |
| 20260507122544 | 64 | 31 | 2.0 | 8.0 | 0.00 | 0.00 | 0.00 | 78 | 1013.6 |
| 20260507122042 | 64 | 28 | 2.0 | 8.0 | 0.00 | 0.00 | 0.00 | 77 | 1013.6 |
| 20260507121552 | 64 | 21 | 2.0 | 8.0 | 0.00 | 0.00 | 0.00 | 76 | 1013.5 |
| 20260507121052 | 65 | 86 | 1.0 | 7.0 | 0.00 | 0.00 | 0.00 | 73 | 1013.5 |
| 20260507120542 | 64 | 13 | 2.0 | 9.0 | 0.00 | 0.00 | 0.00 | 75 | 1013.7 |
| 20260507120057 | 65 | 82 | 1.0 | 9.0 | 0.00 | 0.00 | 0.00 | 74 | 1013.6 |
| 20260507115541 | 64 | 20 | 3.0 | 9.0 | 0.00 | 0.00 | 0.00 | 73 | 1013.6 |
| 20260507115044 | 64 | 11 | 2.0 | 6.0 | 0.00 | 0.00 | 0.00 | 76 | 1013.5 |
| 20260507114556 | 64 | 5 | 1.0 | 7.0 | 0.00 | 0.00 | 0.00 | 78 | 1013.5 |
| 20260507114044 | 64 | 303 | 2.0 | 7.0 | 0.00 | 0.00 | 0.00 | 78 | 1013.6 |
| 20260507113542 | 64 | 55 | 2.0 | 10.0 | 0.00 | 0.00 | 0.00 | 76 | 1013.5 |
| 20260507113050 | 64 | 9 | 3.0 | 10.0 | 0.00 | 0.00 | 0.00 | 76 | 1013.4 |
| 20260507112542 | 66 | 340 | 2.0 | 6.0 | 0.00 | 0.00 | 0.00 | 75 | 1013.5 |
| 20260507112045 | 65 | 12 | 1.0 | 6.0 | 0.00 | 0.00 | 0.00 | 76 | 1013.4 |
| 20260507111553 | 64 | 45 | 2.0 | 6.0 | 0.00 | 0.00 | 0.00 | 77 | 1013.4 |
| 20260507111045 | 65 | 26 | 1.0 | 6.0 | 0.00 | 0.00 | 0.00 | 75 | 1013.4 |
| 20260507110542 | 65 | 24 | 2.0 | 7.0 | 0.00 | 0.00 | 0.00 | 76 | 1013.4 |
| 20260507110054 | 64 | 0 | 2.0 | 8.0 | 0.00 | 0.00 | 0.00 | 78 | 1013.4 |
| 20260507105542 | 65 | 17 | 2.0 | 8.0 | 0.00 | 0.00 | 0.00 | 77 | 1013.5 |
| 20260507105044 | 65 | 350 | 2.0 | 8.0 | 0.00 | 0.00 | 0.00 | 79 | 1013.6 |
| 20260507104556 | 64 | 9 | 1.0 | 8.0 | 0.00 | 0.00 | 0.00 | 81 | 1013.6 |
| 20260507104045 | 64 | 9 | 3.0 | 8.0 | 0.00 | 0.00 | 0.00 | 80 | 1013.7 |
| 20260507103543 | 64 | 9 | 1.0 | 10.0 | 0.00 | 0.00 | 0.00 | 80 | 1013.7 |
| 20260507103050 | 64 | 28 | 2.0 | 10.0 | 0.00 | 0.00 | 0.00 | 81 | 1013.7 |
| 20260507102542 | 64 | 317 | 2.0 | 8.0 | 0.00 | 0.00 | 0.00 | 82 | 1013.6 |
| 20260507102042 | 64 | 5 | 2.0 | 9.0 | 0.00 | 0.00 | 0.00 | 82 | 1013.6 |
| 20260507101551 | 64 | 27 | 2.0 | 9.0 | 0.00 | 0.00 | 0.00 | 83 | 1013.7 |
| 20260507101047 | 64 | 30 | 1.0 | 9.0 | 0.00 | 0.00 | 0.00 | 84 | 1013.7 |
| 20260507100541 | 63 | 18 | 2.0 | 9.0 | 0.00 | 0.00 | 0.00 | 84 | 1013.6 |
| 20260507100052 | 64 | 47 | 2.0 | 9.0 | 0.00 | 0.00 | 0.00 | 84 | 1013.5 |
| 20260507095545 | 65 | 311 | 2.0 | 8.0 | 0.00 | 0.00 | 0.00 | 84 | 1013.5 |
| 20260507095044 | 64 | 36 | 2.0 | 8.0 | 0.00 | 0.00 | 0.00 | 84 | 1013.6 |
| 20260507094549 | 64 | 0 | 2.0 | 8.0 | 0.00 | 0.00 | 0.00 | 84 | 1013.4 |
| 20260507094045 | 64 | 337 | 1.0 | 8.0 | 0.00 | 0.00 | 0.00 | 82 | 1013.5 |
| 20260507093542 | 64 | 0 | 2.0 | 8.0 | 0.00 | 0.00 | 0.00 | 82 | 1013.7 |
| 20260507093052 | 64 | 334 | 1.0 | 7.0 | 0.00 | 0.00 | 0.00 | 82 | 1013.6 |
| 20260507092542 | 64 | 315 | 2.0 | 7.0 | 0.00 | 0.00 | 0.00 | 83 | 1013.6 |
| 20260507092042 | 64 | 355 | 2.0 | 7.0 | 0.00 | 0.00 | 0.00 | 83 | 1013.7 |
| 20260507091557 | 64 | 341 | 1.0 | 7.0 | 0.00 | 0.00 | 0.00 | 84 | 1013.7 |
| 20260507091042 | 64 | 340 | 2.0 | 6.0 | 0.00 | 0.00 | 0.00 | 83 | 1013.8 |
| 20260507090541 | 64 | 0 | 1.0 | 7.0 | 0.00 | 0.00 | 0.00 | 84 | 1013.8 |
| 20260507090050 | 63 | 344 | 2.0 | 7.0 | 0.00 | 0.00 | 0.00 | 84 | 1013.7 |
| 20260507085542 | 63 | 346 | 1.0 | 6.0 | 0.00 | 0.00 | 0.00 | 84 | 1013.8 |
| 20260507085047 | 63 | 0 | 1.0 | 6.0 | 0.00 | 0.00 | 0.00 | 85 | 1013.7 |
| 20260507084547 | 62 | 346 | 2.0 | 6.0 | 0.00 | 0.00 | 0.00 | 85 | 1013.8 |
| 20260507084044 | 63 | 329 | 1.0 | 6.0 | 0.00 | 0.00 | 0.00 | 85 | 1013.8 |
| 20260507083543 | 63 | 20 | 2.0 | 8.0 | 0.00 | 0.00 | 0.00 | 84 | 1013.6 |
| 20260507083052 | 63 | 351 | 3.0 | 9.0 | 0.00 | 0.00 | 0.00 | 84 | 1013.7 |
| 20260507082548 | 62 | 355 | 3.0 | 9.0 | 0.00 | 0.00 | 0.00 | 84 | 1013.6 |
| 20260507082041 | 63 | 346 | 1.0 | 9.0 | 0.00 | 0.00 | 0.00 | 84 | 1013.7 |
| 20260507081552 | 63 | 336 | 2.0 | 8.0 | 0.00 | 0.00 | 0.00 | 84 | 1013.5 |
| 20260507081044 | 63 | 333 | 2.0 | 8.0 | 0.00 | 0.00 | 0.00 | 83 | 1013.5 |
| 20260507080543 | 63 | 5 | 2.0 | 8.0 | 0.00 | 0.00 | 0.00 | 84 | 1013.5 |
| 20260507080056 | 62 | 0 | 2.0 | 8.0 | 0.00 | 0.00 | 0.00 | 85 | 1013.4 |
| 20260507075542 | 62 | 343 | 2.0 | 7.0 | 0.00 | 0.00 | 0.00 | 85 | 1013.3 |
| 20260507075048 | 63 | 333 | 1.0 | 8.0 | 0.00 | 0.00 | 0.00 | 85 | 1013.3 |
| 20260507074550 | 63 | 336 | 1.0 | 8.0 | 0.00 | 0.00 | 0.00 | 85 | 1013.3 |
| 20260507074044 | 63 | 348 | 1.0 | 6.0 | 0.00 | 0.00 | 0.00 | 85 | 1013.2 |
| 20260507073545 | 63 | 342 | 1.0 | 9.0 | 0.00 | 0.00 | 0.00 | 85 | 1013.2 |
| 20260507073055 | 62 | 355 | 1.0 | 9.0 | 0.00 | 0.00 | 0.00 | 84 | 1013.2 |
| 20260507072542 | 62 | 329 | 3.0 | 9.0 | 0.00 | 0.00 | 0.00 | 84 | 1013.2 |
| 20260507072045 | 62 | 0 | 3.0 | 9.0 | 0.00 | 0.00 | 0.00 | 84 | 1013.2 |
| 20260507071552 | 63 | 342 | 1.0 | 6.0 | 0.00 | 0.00 | 0.00 | 85 | 1013.3 |
| 20260507071044 | 63 | 319 | 1.0 | 6.0 | 0.00 | 0.00 | 0.00 | 85 | 1013.4 |
| 20260507070545 | 63 | 23 | 2.0 | 9.0 | 0.00 | 0.00 | 0.00 | 85 | 1013.3 |
| 20260507070058 | 62 | 309 | 3.0 | 9.0 | 0.00 | 0.00 | 0.00 | 85 | 1013.3 |
| 20260507065547 | 62 | 299 | 3.0 | 7.0 | 0.00 | 0.00 | 0.00 | 85 | 1013.3 |
| 20260507065041 | 62 | 298 | 1.0 | 6.0 | 0.00 | 0.00 | 0.00 | 86 | 1013.2 |
| 20260507064552 | 62 | 337 | 2.0 | 6.0 | 0.00 | 0.00 | 0.00 | 86 | 1013.3 |
| 20260507064042 | 62 | 329 | 1.0 | 4.0 | 0.00 | 0.00 | 0.00 | 86 | 1013.2 |
| 20260507063545 | 62 | 331 | 1.0 | 5.0 | 0.00 | 0.00 | 0.00 | 86 | 1013.2 |
| 20260507063056 | 62 | 295 | 1.0 | 5.0 | 0.00 | 0.00 | 0.00 | 86 | 1013.1 |
| 20260507062542 | 62 | 315 | 1.0 | 5.0 | 0.00 | 0.00 | 0.00 | 87 | 1013.0 |
| 20260507062044 | 61 | 305 | 2.0 | 5.0 | 0.00 | 0.00 | 0.00 | 88 | 1013.0 |
| 20260507061555 | 61 | 290 | 3.0 | 5.0 | 0.00 | 0.00 | 0.00 | 89 | 1013.1 |
| 20260507061043 | 61 | 302 | 2.0 | 5.0 | 0.00 | 0.00 | 0.00 | 89 | 1013.2 |
| 20260507060541 | 60 | 302 | 2.0 | 6.0 | 0.00 | 0.00 | 0.00 | 89 | 1013.2 |
| 20260507060058 | 60 | 327 | 2.0 | 8.0 | 0.00 | 0.00 | 0.00 | 89 | 1013.1 |
| 20260507055542 | 60 | 332 | 4.0 | 9.0 | 0.00 | 0.00 | 0.00 | 89 | 1013.1 |
| 20260507055044 | 60 | 316 | 4.0 | 9.0 | 0.00 | 0.00 | 0.00 | 90 | 1013.1 |
| 20260507054552 | 60 | 313 | 4.0 | 8.0 | 0.00 | 0.00 | 0.00 | 90 | 1013.1 |
| 20260507054046 | 60 | 318 | 4.0 | 8.0 | 0.00 | 0.00 | 0.00 | 90 | 1013.0 |
| 20260507053546 | 60 | 309 | 4.0 | 11.0 | 0.00 | 0.00 | 0.00 | 90 | 1013.0 |
| 20260507053101 | 60 | 317 | 3.0 | 11.0 | 0.00 | 0.00 | 0.00 | 90 | 1012.9 |
| 20260507052545 | 60 | 327 | 5.0 | 11.0 | 0.00 | 0.00 | 0.00 | 90 | 1012.8 |
| 20260507052046 | 60 | 312 | 4.0 | 10.0 | 0.00 | 0.00 | 0.00 | 90 | 1012.8 |
| 20260507051549 | 60 | 306 | 4.0 | 11.0 | 0.00 | 0.00 | 0.00 | 90 | 1012.7 |
| 20260507051045 | 60 | 309 | 5.0 | 11.0 | 0.00 | 0.00 | 0.00 | 91 | 1012.6 |
| 20260507050547 | 60 | 306 | 6.0 | 11.0 | 0.00 | 0.00 | 0.00 | 91 | 1012.5 |
| 20260507050057 | 60 | 311 | 5.0 | 11.0 | 0.00 | 0.00 | 0.00 | 91 | 1012.4 |
| 20260507045549 | 60 | 315 | 6.0 | 13.0 | 0.00 | 0.00 | 0.00 | 91 | 1012.4 |
| 20260507045046 | 60 | 306 | 8.0 | 13.0 | 0.00 | 0.00 | 0.00 | 92 | 1012.3 |
| 20260507044558 | 60 | 308 | 7.0 | 13.0 | 0.00 | 0.00 | 0.00 | 92 | 1012.3 |
| 20260507044047 | 60 | 305 | 6.0 | 13.0 | 0.00 | 0.00 | 0.00 | 92 | 1012.1 |
| 20260507043545 | 60 | 306 | 7.0 | 13.0 | 0.00 | 0.00 | 0.00 | 92 | 1012.1 |
| 20260507043058 | 60 | 313 | 7.0 | 12.0 | 0.00 | 0.00 | 0.00 | 92 | 1011.9 |
| 20260507042546 | 60 | 292 | 8.0 | 12.0 | 0.00 | 0.00 | 0.00 | 92 | 1011.9 |
| 20260507042047 | 60 | 292 | 7.0 | 12.0 | 0.00 | 0.00 | 0.00 | 92 | 1011.8 |
| 20260507041600 | 60 | 313 | 6.0 | 10.0 | 0.00 | 0.00 | 0.00 | 91 | 1011.9 |
| 20260507041045 | 60 | 337 | 5.0 | 11.0 | 0.00 | 0.00 | 0.00 | 91 | 1011.7 |
| 20260507040549 | 60 | 324 | 4.0 | 11.0 | 0.00 | 0.00 | 0.00 | 91 | 1011.8 |
| 20260507040058 | 60 | 317 | 5.0 | 10.0 | 0.00 | 0.00 | 0.00 | 90 | 1011.6 |
| 20260507035545 | 60 | 313 | 5.0 | 10.0 | 0.00 | 0.00 | 0.00 | 90 | 1011.6 |
| 20260507035045 | 60 | 355 | 5.0 | 10.0 | 0.00 | 0.00 | 0.00 | 90 | 1011.6 |
| 20260507034608 | 60 | 315 | 4.0 | 10.0 | 0.00 | 0.00 | 0.00 | 90 | 1011.7 |
| 20260507034047 | 60 | 319 | 6.0 | 10.0 | 0.00 | 0.00 | 0.00 | 89 | 1011.6 |
| 20260507033546 | 60 | 322 | 6.0 | 10.0 | 0.00 | 0.00 | 0.00 | 89 | 1011.6 |
| 20260507033056 | 60 | 315 | 4.0 | 11.0 | 0.00 | 0.00 | 0.00 | 89 | 1011.7 |
| 20260507032545 | 60 | 311 | 6.0 | 12.0 | 0.00 | 0.00 | 0.00 | 88 | 1011.6 |
| 20260507032046 | 60 | 340 | 6.0 | 12.0 | 0.00 | 0.00 | 0.00 | 88 | 1011.5 |
| 20260507031558 | 60 | 313 | 6.0 | 15.0 | 0.00 | 0.00 | 0.00 | 87 | 1011.4 |
| 20260507031045 | 60 | 340 | 6.0 | 15.0 | 0.00 | 0.00 | 0.00 | 87 | 1011.3 |
| 20260507030548 | 60 | 296 | 5.0 | 11.0 | 0.00 | 0.00 | 0.00 | 86 | 1011.3 |
| 20260507030057 | 60 | 318 | 5.0 | 11.0 | 0.00 | 0.00 | 0.00 | 85 | 1011.2 |
| 20260507025547 | 60 | 341 | 5.0 | 11.0 | 0.00 | 0.00 | 0.00 | 85 | 1011.3 |
| 20260507025047 | 60 | 323 | 6.0 | 11.0 | 0.00 | 0.00 | 0.00 | 84 | 1011.1 |
| 20260507024557 | 60 | 5 | 5.0 | 11.0 | 0.00 | 0.00 | 0.00 | 83 | 1011.1 |
| 20260507024047 | 60 | 348 | 4.0 | 9.0 | 0.00 | 0.00 | 0.00 | 83 | 1011.0 |
| 20260507023546 | 61 | 339 | 5.0 | 10.0 | 0.00 | 0.00 | 0.00 | 82 | 1011.1 |
| 20260507023053 | 61 | 325 | 4.0 | 10.0 | 0.00 | 0.00 | 0.00 | 82 | 1011.0 |
| 20260507022546 | 61 | 328 | 5.0 | 10.0 | 0.00 | 0.00 | 0.00 | 81 | 1011.0 |
| 20260507022045 | 61 | 336 | 4.0 | 13.0 | 0.00 | 0.00 | 0.00 | 81 | 1011.0 |
| 20260507021557 | 61 | 311 | 3.0 | 13.0 | 0.00 | 0.00 | 0.00 | 80 | 1010.9 |
| 20260507021045 | 61 | 308 | 6.0 | 13.0 | 0.00 | 0.00 | 0.00 | 79 | 1010.9 |
| 20260507020546 | 62 | 332 | 6.0 | 11.0 | 0.00 | 0.00 | 0.00 | 79 | 1010.9 |
| 20260507020104 | 62 | 22 | 6.0 | 11.0 | 0.00 | 0.00 | 0.00 | 79 | 1010.8 |
| 20260507015545 | 62 | 330 | 5.0 | 11.0 | 0.00 | 0.00 | 0.00 | 78 | 1010.7 |
| 20260507015046 | 62 | 348 | 6.0 | 12.0 | 0.00 | 0.00 | 0.00 | 79 | 1010.6 |
| 20260507014556 | 62 | 345 | 5.0 | 12.0 | 0.00 | 0.00 | 0.00 | 79 | 1010.7 |
| 20260507014047 | 62 | 331 | 6.0 | 12.0 | 0.00 | 0.00 | 0.00 | 80 | 1010.7 |
| 20260507013545 | 61 | 324 | 7.0 | 12.0 | 0.00 | 0.00 | 0.00 | 82 | 1010.7 |
| 20260507013101 | 61 | 317 | 7.0 | 12.0 | 0.00 | 0.00 | 0.00 | 83 | 1010.7 |
| 20260507012545 | 61 | 317 | 6.0 | 12.0 | 0.00 | 0.00 | 0.00 | 84 | 1010.7 |
| 20260507012046 | 61 | 295 | 7.0 | 12.0 | 0.00 | 0.00 | 0.00 | 86 | 1010.7 |
| 20260507011555 | 60 | 301 | 6.0 | 10.0 | 0.00 | 0.00 | 0.00 | 88 | 1010.7 |
| 20260507011049 | 60 | 275 | 5.0 | 9.0 | 0.00 | 0.00 | 0.00 | 90 | 1010.7 |
| 20260507010547 | 60 | 312 | 4.0 | 9.0 | 0.00 | 0.00 | 0.00 | 90 | 1010.6 |
| 20260507010050 | 60 | 306 | 5.0 | 10.0 | 0.00 | 0.00 | 0.00 | 90 | 1010.5 |
| 20260507005546 | 60 | 311 | 6.0 | 10.0 | 0.00 | 0.00 | 0.00 | 89 | 1010.4 |
| 20260507005045 | 60 | 316 | 7.0 | 13.0 | 0.00 | 0.00 | 0.00 | 89 | 1010.5 |
| 20260507004559 | 60 | 315 | 6.0 | 13.0 | 0.00 | 0.00 | 0.00 | 89 | 1010.5 |
| 20260507004045 | 60 | 317 | 7.0 | 13.0 | 0.00 | 0.00 | 0.00 | 88 | 1010.5 |
| 20260507003550 | 60 | 321 | 7.0 | 13.0 | 0.00 | 0.00 | 0.00 | 87 | 1010.6 |
| 20260507003053 | 61 | 326 | 7.0 | 13.0 | 0.00 | 0.00 | 0.00 | 86 | 1010.6 |
| 20260507002545 | 61 | 343 | 7.0 | 11.0 | 0.00 | 0.00 | 0.00 | 85 | 1010.6 |
| 20260507002045 | 61 | 324 | 6.0 | 10.0 | 0.00 | 0.00 | 0.00 | 85 | 1010.6 |
| 20260507001550 | 61 | 319 | 5.0 | 9.0 | 0.00 | 0.00 | 0.00 | 85 | 1010.7 |
| 20260507001046 | 61 | 315 | 5.0 | 9.0 | 0.00 | 0.00 | 0.00 | 84 | 1010.8 |
| 20260507000549 | 61 | 333 | 5.0 | 9.0 | 0.00 | 0.00 | 0.00 | 84 | 1010.8 |
| 20260507000055 | 61 | 323 | 5.0 | 8.0 | 0.00 | 0.00 | 0.00 | 83 | 1010.8 |
| 20260506235546 | 61 | 335 | 4.0 | 6.0 | 0.00 | 0.00 | 0.00 | 83 | 1010.8 |
| 20260506235048 | 61 | 342 | 3.0 | 6.0 | 0.00 | 0.00 | 0.00 | 82 | 1010.9 |
| 20260506234556 | 61 | 341 | 3.0 | 6.0 | 0.00 | 0.00 | 0.00 | 82 | 1011.0 |
| 20260506234048 | 62 | 327 | 3.0 | 5.0 | 0.00 | 0.00 | 0.00 | 81 | 1011.1 |
| 20260506233546 | 62 | 343 | 1.0 | 5.0 | 0.00 | 0.00 | 0.00 | 80 | 1011.0 |
| 20260506233054 | 62 | 336 | 2.0 | 8.0 | 0.00 | 0.00 | 0.00 | 80 | 1011.1 |
| 20260506232546 | 62 | 355 | 3.0 | 8.0 | 0.00 | 0.00 | 0.00 | 79 | 1011.0 |
| 20260506232044 | 62 | 309 | 4.0 | 8.0 | 0.00 | 0.00 | 0.00 | 79 | 1011.0 |
| 20260506231550 | 62 | 314 | 3.0 | 8.0 | 0.00 | 0.00 | 0.00 | 79 | 1011.1 |
| 20260506231044 | 63 | 323 | 4.0 | 8.0 | 0.00 | 0.00 | 0.00 | 79 | 1011.0 |
| 20260506230543 | 62 | 313 | 2.0 | 6.0 | 0.00 | 0.00 | 0.00 | 80 | 1011.0 |
| 20260506230100 | 62 | 337 | 1.0 | 6.0 | 0.00 | 0.00 | 0.00 | 80 | 1011.0 |
| 20260506225545 | 62 | 328 | 3.0 | 6.0 | 0.00 | 0.00 | 0.00 | 81 | 1011.0 |
| 20260506225046 | 62 | 336 | 2.0 | 6.0 | 0.00 | 0.00 | 0.00 | 81 | 1011.0 |
| 20260506224600 | 62 | 315 | 3.0 | 9.0 | 0.00 | 0.00 | 0.00 | 81 | 1011.1 |